When you browse on this site, cookies collect data to enhance your experience and personalize the content and advertising you see.
Visit our Privacy Policy to learn more. By continuing to use the site, you agree to this use of cookies and data.
  • In Hungary
  • List of Countries
  • For 7 days
  • Water Temperature
  • Satellite Maps
  • Weather Map
  • News
  • Weather Widgets
  • user-avatar
    Login

    Hourly Weather Port-au-Princ

    Today, 26 March, Tuesday

    Time Temperature Precipitation Wind Pressure Humidity
    00:00 +23°C° 0 mm 0 mps 736 mmHg 71%
    01:00 +23°C° 0 mm 0 mps 736 mmHg 72%
    02:00 +23°C° 0 mm 0 mps 735 mmHg 73%
    03:00 +22°C° 0 mm 0 mps 735 mmHg 74%
    04:00 +22°C° 0 mm 0 mps 735 mmHg 75%
    05:00 +23°C° 0 mm 0 mps 735 mmHg 73%
    06:00 +23°C° 0 mm 0 mps 735 mmHg 71%
    07:00 +25°C° 0 mm 1 mps 735 mmHg 69%
    08:00 +27°C° 0 mm 1 mps 736 mmHg 62%
    09:00 +29°C° 0 mm 1 mps 736 mmHg 55%
    10:00 +31°C° 0 mm 1 mps 737 mmHg 49%
    11:00 +31°C° 0.1 mm 1 mps 736 mmHg 48%
    12:00 +32°C° 0.1 mm 2 mps 736 mmHg 48%
    13:00 +33°C° 0.1 mm 3 mps 736 mmHg 47%
    14:00 +31°C° 0.5 mm 3 mps 735 mmHg 50%
    15:00 +31°C° 0.5 mm 3 mps 734 mmHg 53%
    16:00 +30°C° 0.5 mm 3 mps 734 mmHg 56%
    17:00 +29°C° 0.7 mm 3 mps 734 mmHg 61%
    18:00 +28°C° 0.7 mm 2 mps 735 mmHg 66%
    19:00 +27°C° 0.7 mm 2 mps 735 mmHg 71%
    20:00 +27°C° 0.3 mm 1 mps 735 mmHg 72%
    21:00 +26°C° 0.3 mm 1 mps 736 mmHg 73%
    22:00 +24°C° 0.3 mm 0 mps 736 mmHg 74%
    23:00 +24°C° 0 mm 0 mps 736 mmHg 75%

    Tomorrow, 27 March, Wednesday

    Time Temperature Precipitation Wind Pressure Humidity
    00:00 +23°C° 0 mm 0 mps 736 mmHg 76%
    01:00 +23°C° 0 mm 0 mps 735 mmHg 77%
    02:00 +23°C° 0 mm 0 mps 735 mmHg 78%
    03:00 +23°C° 0 mm 0 mps 735 mmHg 79%
    04:00 +22°C° 0 mm 0 mps 734 mmHg 79%
    05:00 +23°C° 0 mm 0 mps 735 mmHg 77%
    06:00 +25°C° 0 mm 1 mps 735 mmHg 75%
    07:00 +26°C° 0 mm 1 mps 735 mmHg 73%
    08:00 +27°C° 0 mm 1 mps 736 mmHg 66%
    09:00 +29°C° 0 mm 1 mps 736 mmHg 59%
    10:00 +31°C° 0 mm 1 mps 737 mmHg 53%
    11:00 +31°C° 0.6 mm 1 mps 736 mmHg 53%
    12:00 +31°C° 0.6 mm 2 mps 736 mmHg 53%
    13:00 +33°C° 0.6 mm 3 mps 735 mmHg 52%
    14:00 +31°C° 1.1 mm 3 mps 735 mmHg 55%
    15:00 +30°C° 1.1 mm 3 mps 734 mmHg 58%
    16:00 +30°C° 1.1 mm 3 mps 734 mmHg 61%
    17:00 +29°C° 1.5 mm 2 mps 734 mmHg 66%
    18:00 +28°C° 1.5 mm 2 mps 735 mmHg 71%
    19:00 +26°C° 1.5 mm 1 mps 735 mmHg 76%
    20:00 +26°C° 0.7 mm 1 mps 735 mmHg 76%
    21:00 +26°C° 0.7 mm 1 mps 736 mmHg 77%
    22:00 +26°C° 0.7 mm 1 mps 736 mmHg 77%
    23:00 +23°C° 0.2 mm 0 mps 736 mmHg 78%

    Day after tomorrow, 28 March, Thursday

    Time Temperature Precipitation Wind Pressure Humidity
    00:00 +23°C° 0.2 mm 0 mps 736 mmHg 78%
    01:00 +23°C° 0.2 mm 0 mps 735 mmHg 79%
    02:00 +23°C° 0 mm 0 mps 735 mmHg 79%
    03:00 +23°C° 0 mm 0 mps 735 mmHg 80%
    04:00 +23°C° 0 mm 0 mps 734 mmHg 80%
    05:00 +23°C° 0 mm 0 mps 735 mmHg 78%
    06:00 +23°C° 0 mm 0 mps 735 mmHg 77%
    07:00 +24°C° 0 mm 0 mps 736 mmHg 75%
    08:00 +27°C° 0 mm 1 mps 736 mmHg 69%
    09:00 +28°C° 0 mm 1 mps 737 mmHg 63%
    10:00 +30°C° 0 mm 2 mps 737 mmHg 58%
    11:00 +30°C° 0.4 mm 2 mps 737 mmHg 57%
    12:00 +30°C° 0.4 mm 3 mps 736 mmHg 56%
    13:00 +31°C° 0.4 mm 3 mps 736 mmHg 55%
    14:00 +30°C° 0.7 mm 3 mps 735 mmHg 57%
    15:00 +30°C° 0.7 mm 4 mps 735 mmHg 60%
    16:00 +29°C° 0.7 mm 4 mps 735 mmHg 63%
    17:00 +28°C° 0.3 mm 3 mps 735 mmHg 67%
    18:00 +27°C° 0.3 mm 3 mps 735 mmHg 72%
    19:00 +26°C° 0.3 mm 2 mps 736 mmHg 76%
    20:00 +25°C° 0 mm 2 mps 736 mmHg 77%
    21:00 +25°C° 0 mm 1 mps 736 mmHg 79%
    22:00 +25°C° 0 mm 1 mps 736 mmHg 81%
    23:00 +25°C° 0 mm 1 mps 736 mmHg 81%

    29 March, Friday

    Time Temperature Precipitation Wind Pressure Humidity
    00:00 +24°C° 0 mm 1 mps 736 mmHg 82%
    01:00 +24°C° 0 mm 1 mps 735 mmHg 83%
    02:00 +24°C° 0 mm 1 mps 735 mmHg 84%
    03:00 +24°C° 0 mm 1 mps 735 mmHg 84%
    04:00 +23°C° 0 mm 1 mps 735 mmHg 85%
    05:00 +24°C° 0 mm 1 mps 735 mmHg 83%
    06:00 +24°C° 0 mm 1 mps 736 mmHg 81%
    07:00 +24°C° 0 mm 1 mps 736 mmHg 80%
    08:00 +26°C° 0 mm 1 mps 736 mmHg 73%
    09:00 +27°C° 0 mm 1 mps 737 mmHg 66%
    10:00 +29°C° 0 mm 1 mps 737 mmHg 59%
    11:00 +29°C° 0.2 mm 2 mps 736 mmHg 59%
    12:00 +29°C° 0.2 mm 3 mps 736 mmHg 59%
    13:00 +30°C° 0.2 mm 3 mps 735 mmHg 59%
    14:00 +29°C° 0.7 mm 3 mps 735 mmHg 60%
    15:00 +29°C° 0.7 mm 4 mps 735 mmHg 61%
    16:00 +28°C° 0.7 mm 4 mps 734 mmHg 63%
    17:00 +28°C° 0.3 mm 3 mps 735 mmHg 66%
    18:00 +27°C° 0.3 mm 3 mps 735 mmHg 69%
    19:00 +26°C° 0.3 mm 2 mps 735 mmHg 72%
    20:00 +25°C° 0 mm 2 mps 736 mmHg 73%
    21:00 +25°C° 0 mm 1 mps 736 mmHg 74%
    22:00 +25°C° 0 mm 1 mps 736 mmHg 75%
    23:00 +24°C° 0 mm 1 mps 736 mmHg 76%

    30 March, Saturday

    Time Temperature Precipitation Wind Pressure Humidity
    00:00 +24°C° 0 mm 1 mps 736 mmHg 77%
    01:00 +24°C° 0 mm 1 mps 735 mmHg 79%
    02:00 +24°C° 0 mm 1 mps 735 mmHg 79%
    03:00 +23°C° 0 mm 1 mps 735 mmHg 80%
    04:00 +23°C° 0 mm 1 mps 735 mmHg 80%
    05:00 +24°C° 0 mm 1 mps 735 mmHg 79%
    06:00 +24°C° 0 mm 1 mps 736 mmHg 77%
    07:00 +24°C° 0 mm 1 mps 736 mmHg 75%
    08:00 +26°C° 0 mm 1 mps 736 mmHg 68%
    09:00 +28°C° 0 mm 1 mps 737 mmHg 61%
    10:00 +27°C° 0 mm 0 mps 737 mmHg 55%
    11:00 +30°C° 0 mm 1 mps 736 mmHg 53%
    12:00 +30°C° 0 mm 2 mps 736 mmHg 52%
    13:00 +31°C° 0 mm 3 mps 735 mmHg 50%
    14:00 +30°C° 0.2 mm 3 mps 735 mmHg 53%
    15:00 +30°C° 0.2 mm 3 mps 735 mmHg 55%
    16:00 +29°C° 0.2 mm 3 mps 734 mmHg 57%
    17:00 +28°C° 0.3 mm 3 mps 735 mmHg 62%
    18:00 +27°C° 0.3 mm 2 mps 735 mmHg 66%
    19:00 +26°C° 0.3 mm 2 mps 736 mmHg 70%
    20:00 +26°C° 0.1 mm 1 mps 736 mmHg 71%
    21:00 +25°C° 0.1 mm 1 mps 736 mmHg 72%
    22:00 +25°C° 0.1 mm 1 mps 736 mmHg 73%
    23:00 +25°C° 0 mm 1 mps 736 mmHg 73%

    31 March, Sunday

    Time Temperature Precipitation Wind Pressure Humidity
    00:00 +24°C° 0 mm 1 mps 736 mmHg 74%
    01:00 +24°C° 0 mm 1 mps 735 mmHg 75%
    02:00 +24°C° 0 mm 1 mps 735 mmHg 75%
    03:00 +24°C° 0 mm 1 mps 735 mmHg 76%
    04:00 +24°C° 0 mm 1 mps 735 mmHg 76%
    05:00 +24°C° 0 mm 1 mps 735 mmHg 75%
    06:00 +24°C° 0 mm 1 mps 736 mmHg 73%
    07:00 +25°C° 0 mm 1 mps 736 mmHg 71%
    08:00 +26°C° 0 mm 1 mps 736 mmHg 64%
    09:00 +28°C° 0 mm 1 mps 737 mmHg 58%
    10:00 +30°C° 0 mm 1 mps 737 mmHg 52%
    11:00 +30°C° 0 mm 1 mps 736 mmHg 50%
    12:00 +31°C° 0 mm 2 mps 736 mmHg 49%
    13:00 +31°C° 0 mm 3 mps 735 mmHg 48%
    14:00 +31°C° 0.1 mm 3 mps 735 mmHg 51%
    15:00 +30°C° 0.1 mm 3 mps 735 mmHg 53%
    16:00 +30°C° 0.1 mm 3 mps 735 mmHg 56%
    17:00 +29°C° 0.1 mm 3 mps 735 mmHg 60%
    18:00 +28°C° 0.1 mm 2 mps 735 mmHg 64%
    19:00 +27°C° 0.1 mm 2 mps 736 mmHg 68%
    20:00 +26°C° 0.1 mm 1 mps 736 mmHg 69%
    21:00 +26°C° 0.1 mm 1 mps 736 mmHg 71%
    22:00 +25°C° 0.1 mm 1 mps 736 mmHg 72%
    23:00 +25°C° 0 mm 1 mps 736 mmHg 74%
    Show more